Regional Weather Roundup
Issued by NWS

Home | Current Version | Previous Version | Graphics & Text | Print | Product List | Glossary On
Versions: 1 2 3 4 5 6 7 8 9 10 11 12 13 14 15 16 17 18 19 20 21 22 23 24 25 26 27 28 29 30 31 32 33 34 35 36 37 38 39 40 41 42 43 44 45 46 47 48 49 50
000
ASUS43 KDTX 210210
RWRMI
MICHIGAN HOURLY REGIONAL WEATHER ROUNDUP
NATIONAL WEATHER SERVICE DETROIT/PONTIAC MI
ISSUED BY NATIONAL WEATHER SERVICE GRAND RAPIDS MI
1000 PM EDT SUN MAY 20 2018

NOTE: "FAIR" INDICATES FEW OR NO CLOUDS BELOW 12,000 FEET WITH NO
SIGNIFICANT WEATHER AND/OR OBSTRUCTION TO VISIBILITY.

MIZ047>049-052>055-059>063-066>070-074>076-081>083-210300-
SOUTHEAST LOWER MICHIGAN

CITY           SKY/WX    TMP DP  RH WIND       PRES   REMARKS
ADRIAN         CLOUDY    58  56  93 E8        30.18R
ALMA           FAIR      51  50  98 S3        30.19R
ANN ARBOR      CLOUDY    58  54  86 E5        30.18R
BAD AXE        FAIR      46  44  93 CALM      30.20R
DETROIT CITY   CLOUDY    54  47  77 E7        30.19R
DETROIT        CLOUDY    59  51  75 SE3       30.19R
FLINT          FAIR      53  50  89 SE5       30.19R
GROSSE ILE     CLOUDY    56  52  84 E3        30.18R
HILLSDALE      MOCLDY    55  54  94 CALM      30.17R
HOWELL         MOCLDY    56  52  87 CALM      30.19R

CITY           SKY/WX    TMP DP  RH WIND       PRES   REMARKS
JACKSON        FAIR      56  54  93 CALM      30.18R
LANSING        FAIR      53  50  89 CALM      30.19R
MASON          CLOUDY    55  52  88 CALM      30.19R
MONROE         CLOUDY    57  55  93 CALM      30.18R
MT. CLEMENS    MOCLDY    51  51  99 NE3       30.20S
PONTIAC        CLOUDY    56  52  86 E3        30.18R
PORT HOPE        N/A     44  41  89 CALM      30.18S
PORT HURON     FAIR      45  41  87 CALM      30.21S
TRI CITIES     FAIR      54  49  83 CALM      30.20R
YPSILANTI      CLOUDY    61  53  75 E5        30.19R
$$
MIZ043>046-050>051-056>058-064>065-071>073-077>080-210300-
SOUTHWEST LOWER MICHIGAN

CITY           SKY/WX    TMP DP  RH WIND       PRES   REMARKS
BATTLE CREEK   CLOUDY    58  54  86 E6        30.18R
BENTON HARBOR  CLOUDY    54  51  90 CALM      30.15S
BIG RAPIDS     FAIR      56  49  77 S3        30.17R
COLDWATER      FAIR      56  55  97 NE6       30.16S
HOLLAND        FAIR      56  52  86 E6        30.17R
GRAND RAPIDS   FAIR      55  51  86 E6        30.17S
KALAMAZOO      CLOUDY    58  54  86 E5        30.18R
MARSHALL       CLOUDY    57  54  89 NE3       30.17S
MOUNT PLEASANT FAIR      56  51  85 CALM      30.18R
MUSKEGON       MOCLDY    54  48  80 CALM      30.17R
STURGIS        FAIR      58  56  94 NE6       30.15S
$$
MIZ016>042-210300-
NORTHERN LOWER MICHIGAN

CITY           SKY/WX    TMP DP  RH WIND       PRES   REMARKS
ALPENA         FAIR      49  42  77 CALM      30.20R
BEAVER ISLAND  FAIR      43  34  70 CALM      30.20S
BELLAIRE       FAIR      46  39  78 CALM      30.20R
CADILLAC       FAIR      51  43  73 CALM      30.18R
CHARLEVOIX     FAIR      44  37  77 CALM      30.22S
GAYLORD        FAIR      54  33  45 CALM      30.19R
HOUGHTON LAKE  FAIR      57  49  74 SE8       30.18R
MANISTEE       FAIR      46  43  89 CALM      30.17S
PELLSTON       FAIR      48  38  68 CALM      30.19S
TRAVERSE CITY  FAIR      47  37  68 CALM      30.19R
LUDINGTON      FAIR      48  42  80 CALM      30.16S
$$
MIZ007>008-015-210300-
EASTERN UPPER MICHIGAN

CITY           SKY/WX    TMP DP  RH WIND       PRES   REMARKS
KINROSS        FAIR      46  29  51 N6        30.20S
MACKINAC ISLAN FAIR      48  33  54 W3        30.20R
NEWBERRY       FAIR      52  31  44 N3        30.19R
S. S. MARIE    FAIR      43  35  73 SW5       30.19R
$$
MIZ004>006-011>014-085-210300-
CENTRAL UPPER MICHIGAN

CITY           SKY/WX    TMP DP  RH WIND       PRES   REMARKS
MANISTIQUE     FAIR      42  38  84 S3        30.19R
ESCANABA       FAIR      48  35  60 CALM      30.19S
SAWYER-GWINN   CLEAR     57  27  30 CALM      30.19R
$$
MIZ001>003-009>011-084-210300-
WESTERN UPPER MICHIGAN

CITY           SKY/WX    TMP DP  RH WIND       PRES   REMARKS
IRON MOUNTAIN  FAIR      58  33  39 SE5       30.17R
HOUGHTON       FAIR      55  30  38 NW7       30.16F
COPPER HARBOR    N/A     44  35  70 N3        30.15F
IRONWOOD       FAIR      51  38  60 CALM      30.18S
$$

ABBREVIATIONS USED IN REMARKS
   TC - TEMPERATURE IN CELSIUS
  WCI - WIND CHILL INDEX
   HX - HEAT INDEX
  VSB - VISIBILITY




USA.gov is the U.S. government's official web portal to all federal, state and local government web resources and services.